QPF
0.00 0.00 0.00 0.00 0.00 0.00 0.01 0.00 0.00 0.00 0.00 0.00 0.00 0.00 0.00 0.00 0.00 0.00 0.00 0.00 0.00 0.00 0.00 0.00 0.00 0.01 0.01 0.01 0.00 0.00 0.00 0.00 0.00 0.01 0.02 0.02 0.01 0.01 0.01 0.02 0.01 0.01 0.01
0.00 0.00 0.01 0.00 0.00 0.00 0.01 0.00 0.00 0.00 0.00 0.00 0.00 0.00 0.00 0.00 0.00 0.00 0.00 0.00 0.00 0.02 0.01 0.00 0.00 0.01 0.01 0.00 0.00 0.00 0.00 0.00 0.00 0.00 0.01 0.01 0.01 0.01 0.00 0.00 0.00 0.00 0.00
0.00 0.00 0.00 0.00 0.00 0.01 0.02 0.00 0.00 0.00 0.00 0.00 0.00 0.00 0.00 0.00 0.00 0.00 0.00 0.00 0.00 0.05 0.03 0.00 0.00 0.00 0.00 0.00 0.00 0.00 0.00 0.00 0.00 0.01 0.01 0.01 0.01 0.00 0.00 0.00 0.00 0.00 0.00
0.00 0.01 0.00 0.00 0.00 0.03 0.06 0.00 0.00 0.02 0.02 0.00 0.00 0.00 0.00 0.00 0.00 0.00 0.00 0.00 0.01 0.05 0.01 0.00 0.00 0.00 0.00 0.00 0.00 0.00 0.00 0.00 0.00 0.00 0.00 0.00 0.00 0.00 0.00 0.00 0.00 0.00 0.00
0.00 0.02 0.01 0.00 0.00 0.00 0.00 0.04 0.10 0.20 0.06 0.00 0.00 0.00 0.00 0.00 0.01 0.00 0.00 0.00 0.00 0.03 0.00 0.00 0.00 0.00 0.00 0.00 0.00 0.00 0.00 0.00 0.00 0.00 0.00 0.00 0.00 0.00 0.00 0.00 0.00 0.00 0.00
0.01 0.02 0.06 0.01 0.00 0.01 0.05 0.22 0.35 0.53 0.34 0.04 0.00 0.01 0.00 0.00 0.00 0.00 0.00 0.00 0.00 0.00 0.00 0.00 0.00 0.00 0.00 0.00 0.00 0.00 0.00 0.00 0.00 0.00 0.00 0.00 0.00 0.00 0.00 0.00 0.00 0.00 0.00
0.00 0.01 0.04 0.04 0.02 0.04 0.11 0.27 0.31 0.35 0.52 0.43 0.13 0.10 0.04 0.01 0.00 0.00 0.00 0.00 0.00 0.00 0.00 0.00 0.00 0.00 0.00 0.00 0.00 0.00 0.00 0.00 0.00 0.00 0.00 0.00 0.00 0.00 0.00 0.00 0.00 0.00 0.00
0.00 0.00 0.03 0.05 0.07 0.08 0.07 0.04 0.10 0.19 0.23 0.17 0.24 0.40 0.22 0.06 0.00 0.00 0.00 0.00 0.00 0.00 0.00 0.00 0.00 0.00 0.00 0.00 0.00 0.00 0.00 0.00 0.00 0.00 0.00 0.00 0.00 0.00 0.00 0.00 0.00 0.00 0.00
0.00 0.01 0.03 0.07 0.07 0.17 0.11 0.02 0.15 0.28 0.20 0.27 0.11 0.11 0.40 0.26 0.03 0.01 0.02 0.03 0.00 0.00 0.00 0.00 0.00 0.00 0.00 0.00 0.00 0.00 0.00 0.00 0.00 0.00 0.00 0.00 0.00 0.00 0.00 0.00 0.00 0.00 0.00
0.00 0.00 0.02 0.15 0.09 0.02 0.03 0.03 0.13 0.21 0.37 0.30 0.09 0.03 0.12 0.30 0.15 0.02 0.02 0.05 0.02 0.00 0.00 0.00 0.00 0.00 0.00 0.00 0.00 0.00 0.00 0.00 0.00 0.00 0.00 0.00 0.00 0.00 0.00 0.00 0.00 0.00 0.00
0.00 0.00 0.00 0.01 0.07 0.11 0.05 0.01 0.09 0.11 0.15 0.20 0.16 0.12 0.11 0.13 0.10 0.03 0.03 0.02 0.01 0.00 0.00 0.00 0.00 0.00 0.00 0.00 0.00 0.00 0.00 0.00 0.00 0.00 0.00 0.00 0.00 0.00 0.00 0.00 0.00 0.00 0.00
0.00 0.00 0.00 0.01 0.02 0.01 0.02 0.01 0.01 0.01 0.01 0.04 0.09 0.05 0.12 0.17 0.09 0.12 0.11 0.01 0.00 0.00 0.00 0.00 0.00 0.00 0.00 0.00 0.00 0.00 0.00 0.00 0.00 0.00 0.00 0.00 0.00 0.00 0.00 0.00 0.00 0.00 0.00
0.00 0.00 0.00 0.00 0.00 0.02 0.02 0.02 0.02 0.02 0.04 0.10 0.14 0.05 0.05 0.11 0.14 0.15 0.09 0.03 0.00 0.00 0.00 0.00 0.00 0.00 0.00 0.00 0.00 0.00 0.00 0.00 0.00 0.00 0.00 0.00 0.00 0.00 0.00 0.00 0.00 0.00 0.00
0.01 0.01 0.00 0.00 0.00 0.01 0.02 0.01 0.01 0.01 0.03 0.03 0.06 0.03 0.03 0.03 0.05 0.13 0.10 0.03 0.00 0.00 0.00 0.00 0.00 0.00 0.00 0.00 0.00 0.00 0.00 0.00 0.00 0.00 0.00 0.00 0.00 0.00 0.00 0.00 0.00 0.00 0.00
0.00 0.01 0.02 0.01 0.00 0.00 0.00 0.00 0.01 0.01 0.01 0.01 0.01 0.02 0.02 0.02 0.04 0.06 0.08 0.03 0.00 0.00 0.00 0.00 0.00 0.00 0.00 0.00 0.00 0.00 0.00 0.00 0.00 0.00 0.00 0.00 0.00 0.00 0.00 0.00 0.00 0.00 0.00
0.00 0.00 0.01 0.01 0.01 0.01 0.01 0.01 0.01 0.00 0.00 0.00 0.00 0.00 0.01 0.00 0.02 0.03 0.06 0.04 0.00 0.00 0.00 0.00 0.00 0.00 0.00 0.00 0.00 0.00 0.00 0.00 0.00 0.00 0.00 0.00 0.00 0.00 0.00 0.00 0.00 0.00 0.00
0.00 0.00 0.00 0.01 0.00 0.00 0.00 0.00 0.00 0.00 0.00 0.00 0.00 0.00 0.00 0.00 0.01 0.01 0.06 0.04 0.01 0.00 0.00 0.00 0.00 0.00 0.00 0.00 0.00 0.00 0.00 0.00 0.00 0.00 0.00 0.00 0.00 0.00 0.00 0.00 0.00 0.00 0.00
0.00 0.00 0.00 0.01 0.00 0.01 0.01 0.01 0.00 0.00 0.00 0.00 0.00 0.00 0.00 0.00 0.00 0.00 0.02 0.03 0.01 0.00 0.00 0.00 0.00 0.00 0.00 0.00 0.00 0.00 0.00 0.00 0.00 0.00 0.00 0.00 0.00 0.00 0.00 0.00 0.00 0.00 0.00
0.00 0.00 0.01 0.01 0.01 0.01 0.02 0.02 0.00 0.00 0.00 0.00 0.00 0.00 0.00 0.00 0.00 0.00 0.00 0.00 0.00 0.00 0.00 0.00 0.00 0.00 0.00 0.00 0.00 0.00 0.00 0.00 0.00 0.00 0.00 0.00 0.00 0.00 0.00 0.00 0.00 0.00 0.00
0.00 0.00 0.01 0.01 0.00 0.00 0.00 0.01 0.00 0.00 0.00 0.00 0.00 0.00 0.00 0.00 0.00 0.00 0.00 0.00 0.00 0.00 0.00 0.00 0.00 0.00 0.00 0.00 0.00 0.00 0.00 0.00 0.00 0.00 0.00 0.00 0.00 0.00 0.00 0.00 0.00 0.00 0.00
0.00 0.00 0.01 0.01 0.00 0.00 0.00 0.00 0.00 0.00 0.00 0.00 0.00 0.00 0.00 0.00 0.00 0.00 0.00 0.00 0.00 0.00 0.00 0.00 0.00 0.00 0.00 0.00 0.00 0.00 0.00 0.00 0.00 0.00 0.00 0.00 0.00 0.00 0.00 0.00 0.00 0.00 0.00
0.00 0.00 0.00 0.00 0.00 0.00 0.01 0.01 0.00 0.00 0.00 0.00 0.00 0.00 0.00 0.00 0.00 0.00 0.00 0.00 0.00 0.00 0.00 0.00 0.00 0.00 0.00 0.00 0.00 0.00 0.01 0.00 0.00 0.00 0.00 0.00 0.00 0.00 0.00 0.00 0.00 0.00 0.00
0.00 0.00 0.00 0.00 0.00 0.00 0.00 0.01 0.00 0.00 0.01 0.00 0.00 0.00 0.00 0.00 0.00 0.00 0.00 0.00 0.00 0.00 0.00 0.00 0.00 0.00 0.00 0.00 0.00 0.01 0.06 0.06 0.03 0.00 0.00 0.00 0.00 0.00 0.00 0.00 0.00 0.00 0.00
0.00 0.00 0.00 0.00 0.00 0.00 0.00 0.00 0.00 0.00 0.00 0.00 0.00 0.00 0.00 0.00 0.00 0.00 0.00 0.00 0.00 0.00 0.00 0.00 0.00 0.00 0.00 0.01 0.00 0.00 0.02 0.04 0.01 0.03 0.01 0.00 0.00 0.00 0.00 0.00 0.00 0.00 0.00
0.00 0.00 0.00 0.00 0.00 0.00 0.00 0.00 0.01 0.01 0.00 0.00 0.00 0.00 0.00 0.00 0.00 0.00 0.00 0.00 0.00 0.00 0.00 0.00 0.00 0.00 0.00 0.04 0.01 0.01 0.00 0.00 0.00 0.00 0.01 0.03 0.00 0.00 0.00 0.00 0.00 0.00 0.00
0.00 0.00 0.00 0.00 0.00 0.00 0.00 0.00 0.01 0.01 0.00 0.00 0.00 0.00 0.00 0.00 0.00 0.00 0.00 0.00 0.00 0.00 0.00 0.00 0.05 0.04 0.02 0.07 0.08 0.08 0.02 0.00 0.00 0.00 0.00 0.03 0.07 0.03 0.00 0.00 0.00 0.00 0.00
MSLP
1006.56 1007.74 1008.58 1009.31 1009.90 1010.18 1010.33 1010.71 1011.04 1011.29 1011.75 1011.80 1012.03 1012.48 1013.00 1013.38 1013.56 1014.16 1013.98 1014.32 1014.70 1015.00 1015.65 1016.04 1016.09 1016.41 1016.44 1016.82 1017.13 1017.05 1017.29 1017.60 1018.12 1018.40 1018.63 1018.97 1019.09 1019.31 1019.42 1019.31 1019.49 1019.95 1020.19
1006.90 1007.68 1009.12 1009.47 1009.79 1010.10 1010.32 1010.69 1011.05 1011.42 1011.58 1011.98 1012.27 1012.64 1013.14 1013.59 1013.83 1014.16 1014.56 1014.34 1015.06 1015.33 1015.77 1016.34 1016.57 1016.87 1017.04 1017.38 1017.58 1017.72 1017.96 1018.17 1018.63 1018.90 1019.18 1019.53 1019.68 1020.02 1020.07 1020.15 1020.30 1020.69 1020.88
1007.69 1008.27 1009.01 1009.63 1009.90 1010.14 1010.44 1010.72 1011.07 1011.42 1011.79 1012.02 1012.44 1012.83 1013.23 1013.79 1014.07 1014.28 1014.70 1014.76 1015.13 1015.89 1016.10 1016.60 1016.88 1017.30 1017.66 1018.01 1018.02 1018.21 1018.43 1018.67 1018.99 1019.17 1019.34 1019.68 1020.23 1020.56 1020.79 1020.85 1021.03 1021.33 1021.59
1008.10 1007.86 1008.12 1009.57 1009.93 1010.10 1010.26 1010.67 1011.17 1011.54 1012.00 1012.37 1012.71 1013.21 1013.62 1013.96 1014.22 1014.64 1014.79 1015.31 1015.26 1016.16 1016.50 1016.66 1017.31 1017.76 1018.24 1018.34 1018.26 1018.68 1018.78 1019.00 1019.16 1019.04 1019.58 1020.19 1020.69 1021.25 1021.32 1021.49 1021.87 1021.99 1022.16
1008.34 1008.28 1008.35 1009.36 1009.94 1010.10 1010.30 1010.68 1011.05 1011.33 1011.76 1012.17 1012.56 1013.23 1013.70 1014.04 1014.69 1014.85 1015.08 1015.54 1015.31 1016.44 1016.72 1016.99 1017.63 1018.19 1018.67 1018.66 1018.82 1018.88 1019.09 1019.25 1019.45 1019.30 1019.91 1020.71 1021.17 1021.86 1021.88 1021.83 1022.26 1022.51 1022.40
1008.81 1008.65 1009.22 1009.42 1009.60 1009.91 1010.38 1010.80 1010.61 1011.01 1011.79 1011.97 1012.55 1013.15 1013.58 1014.21 1014.66 1015.16 1015.53 1015.87 1015.90 1016.35 1016.93 1017.44 1018.04 1018.69 1018.97 1019.03 1019.17 1019.17 1019.32 1019.54 1019.50 1019.27 1020.00 1020.87 1021.41 1022.45 1022.38 1022.48 1022.99 1023.14 1023.33
1008.63 1009.10 1009.20 1009.49 1009.91 1010.36 1010.38 1010.89 1011.16 1011.83 1011.91 1010.95 1011.94 1013.12 1013.39 1014.29 1014.79 1015.25 1015.74 1016.13 1016.61 1016.55 1017.08 1017.90 1018.55 1018.96 1019.23 1019.52 1019.64 1019.59 1019.75 1019.78 1019.15 1019.76 1020.47 1021.36 1022.31 1022.68 1022.97 1023.19 1023.57 1023.69 1023.90
1008.83 1009.06 1009.32 1009.99 1010.29 1010.55 1010.40 1011.96 1012.36 1012.68 1012.57 1012.44 1012.39 1013.53 1013.53 1014.42 1014.94 1015.29 1016.07 1016.40 1017.03 1017.17 1017.39 1018.19 1018.92 1019.33 1019.62 1019.93 1020.08 1020.19 1020.25 1019.93 1019.57 1020.11 1020.84 1021.81 1022.85 1023.02 1023.56 1023.65 1024.18 1024.38 1024.50
1008.92 1009.03 1009.31 1009.87 1010.36 1010.83 1011.20 1011.76 1012.83 1013.23 1012.75 1012.91 1012.78 1013.20 1014.06 1014.41 1015.10 1015.57 1016.08 1016.77 1017.55 1017.86 1017.92 1018.44 1019.25 1019.68 1020.07 1020.46 1020.52 1020.66 1020.64 1020.40 1020.15 1020.45 1021.47 1022.41 1023.16 1023.38 1023.90 1024.17 1024.44 1024.86 1025.23
1009.49 1009.54 1009.49 1010.03 1010.71 1010.98 1011.16 1011.13 1012.70 1012.90 1012.10 1012.93 1013.09 1013.54 1013.99 1014.95 1015.18 1015.79 1016.66 1017.16 1017.96 1018.44 1018.56 1018.77 1019.61 1020.00 1020.52 1020.95 1021.07 1021.09 1021.02 1020.72 1020.41 1021.00 1021.81 1023.20 1023.57 1023.84 1024.13 1024.53 1024.87 1025.37 1025.71
1009.98 1010.11 1010.21 1010.44 1010.60 1011.16 1011.40 1011.74 1012.38 1012.78 1012.83 1012.62 1013.05 1013.80 1014.27 1015.05 1015.91 1016.35 1016.84 1017.27 1018.13 1018.85 1018.96 1019.28 1019.91 1020.41 1020.90 1021.35 1021.59 1021.36 1020.83 1020.24 1020.46 1021.03 1022.56 1023.83 1024.05 1024.20 1024.35 1024.96 1025.35 1025.94 1026.03
1009.56 1010.30 1010.62 1010.61 1010.92 1011.17 1011.35 1011.25 1011.67 1011.99 1012.42 1013.12 1013.55 1014.11 1014.62 1015.17 1015.72 1016.21 1017.21 1017.66 1018.17 1019.13 1019.43 1019.88 1020.13 1020.82 1021.06 1021.41 1021.53 1021.75 1020.70 1020.40 1020.55 1021.66 1023.27 1024.15 1024.46 1024.72 1025.05 1025.43 1025.78 1026.16 1026.43
1009.11 1009.75 1010.54 1010.85 1010.75 1010.96 1011.40 1011.52 1011.54 1011.88 1012.14 1012.86 1013.47 1014.36 1015.00 1015.65 1015.94 1016.46 1017.57 1017.95 1018.39 1019.31 1019.63 1020.17 1020.45 1020.29 1020.36 1020.92 1021.27 1020.69 1020.68 1020.59 1020.93 1022.14 1023.93 1024.41 1024.77 1025.06 1025.43 1025.86 1026.11 1026.36 1026.73
1008.68 1009.46 1010.28 1010.71 1010.92 1010.96 1011.15 1011.27 1011.09 1011.55 1011.93 1012.47 1013.07 1014.03 1014.66 1014.98 1015.97 1016.87 1017.08 1017.63 1018.09 1018.88 1019.41 1019.89 1019.56 1019.49 1020.23 1020.70 1020.85 1020.70 1020.96 1020.72 1021.22 1022.55 1024.19 1024.68 1024.90 1025.26 1025.76 1026.10 1026.37 1026.61 1026.85
1008.07 1008.91 1009.92 1010.36 1010.98 1011.14 1011.30 1011.04 1011.43 1011.27 1011.36 1011.90 1012.50 1013.15 1014.30 1014.28 1015.61 1016.06 1016.66 1017.24 1017.69 1018.30 1018.95 1019.15 1018.84 1019.60 1020.14 1020.67 1020.83 1021.13 1021.04 1021.02 1021.69 1022.65 1023.92 1024.82 1025.00 1025.36 1025.76 1026.12 1026.56 1026.90 1027.20
1007.48 1008.17 1009.53 1010.19 1010.69 1010.83 1010.92 1011.13 1011.45 1011.47 1011.50 1011.84 1012.29 1012.68 1013.65 1014.35 1016.10 1016.46 1016.41 1017.39 1017.22 1017.85 1018.40 1018.49 1019.07 1019.52 1020.15 1020.63 1021.04 1021.20 1021.27 1021.59 1021.67 1022.38 1023.55 1024.63 1025.18 1025.47 1025.88 1026.33 1026.64 1026.98 1027.30
1007.21 1007.41 1008.98 1009.89 1010.59 1010.68 1011.12 1011.52 1011.68 1011.85 1012.02 1012.17 1012.75 1012.57 1013.52 1014.25 1016.11 1015.85 1016.80 1017.14 1017.18 1017.74 1018.32 1018.57 1019.33 1019.52 1019.97 1020.38 1020.96 1021.31 1021.39 1021.73 1021.83 1022.16 1023.11 1024.04 1025.01 1025.67 1025.96 1026.20 1026.66 1026.83 1027.17
1006.78 1007.44 1008.90 1009.85 1010.41 1010.75 1011.14 1011.59 1011.80 1012.20 1012.46 1012.63 1013.29 1012.95 1013.99 1015.21 1015.84 1015.95 1017.35 1017.24 1017.56 1018.05 1018.44 1019.00 1019.43 1019.62 1020.11 1020.31 1020.93 1021.28 1021.30 1021.73 1022.15 1022.33 1022.65 1023.39 1024.21 1024.98 1025.95 1026.20 1026.55 1026.67 1027.07
1006.87 1007.31 1008.52 1009.76 1010.34 1010.89 1011.24 1011.79 1012.06 1012.57 1012.91 1013.09 1013.21 1013.96 1015.17 1015.49 1015.91 1016.84 1017.90 1018.22 1018.17 1018.56 1019.19 1019.49 1019.65 1019.83 1020.12 1020.49 1020.98 1021.11 1021.14 1021.42 1022.16 1022.37 1022.47 1022.89 1023.43 1023.98 1024.83 1025.83 1026.28 1026.52 1026.82
1006.40 1007.28 1008.42 1009.74 1010.62 1011.27 1011.71 1012.11 1012.55 1012.90 1013.40 1013.84 1014.12 1014.88 1015.58 1016.66 1017.37 1018.07 1018.47 1018.76 1018.50 1019.03 1019.49 1019.69 1020.08 1020.27 1020.59 1020.44 1020.64 1020.91 1021.20 1021.32 1021.81 1022.13 1022.53 1022.92 1023.22 1023.90 1024.10 1024.76 1025.81 1026.21 1026.53
1006.54 1007.49 1008.50 1009.79 1010.70 1011.26 1011.69 1012.02 1012.66 1013.02 1013.90 1014.38 1014.81 1015.46 1016.16 1016.72 1017.32 1017.76 1017.89 1018.05 1018.09 1018.93 1019.20 1019.88 1020.29 1020.46 1020.39 1020.62 1020.57 1020.95 1021.36 1021.62 1021.70 1021.90 1022.25 1022.60 1023.17 1023.71 1024.02 1024.10 1024.74 1025.09 1025.54
1006.48 1007.44 1008.26 1009.37 1010.42 1011.06 1011.41 1011.80 1012.43 1012.98 1014.16 1014.66 1014.97 1015.49 1016.08 1016.28 1016.53 1016.55 1017.12 1017.90 1017.99 1018.81 1019.32 1019.93 1020.15 1020.15 1020.28 1020.73 1020.43 1020.54 1021.08 1021.71 1021.87 1022.05 1022.08 1022.55 1022.94 1023.09 1023.24 1023.74 1024.01 1024.14 1024.48
1006.05 1007.13 1008.02 1009.19 1010.10 1010.60 1011.07 1011.66 1012.53 1013.39 1014.18 1014.87 1015.21 1015.50 1015.84 1016.00 1016.15 1016.37 1017.10 1017.44 1017.72 1018.32 1019.09 1019.51 1019.46 1019.51 1019.84 1020.60 1020.65 1020.62 1020.90 1020.92 1021.19 1021.76 1022.18 1022.30 1022.57 1022.83 1022.95 1023.40 1023.69 1023.77 1023.99
1005.35 1006.68 1007.80 1008.79 1009.71 1010.24 1010.78 1011.28 1012.07 1012.69 1013.49 1014.19 1014.66 1015.19 1015.38 1015.76 1016.31 1016.74 1016.80 1017.28 1017.90 1018.20 1018.78 1019.18 1019.10 1019.31 1019.66 1020.17 1020.96 1020.86 1020.95 1021.03 1021.41 1021.91 1022.15 1022.19 1022.42 1022.79 1023.11 1023.53 1023.41 1023.29 1023.20
1004.72 1006.03 1007.25 1008.18 1009.23 1009.84 1010.35 1010.91 1011.60 1012.36 1013.21 1013.99 1014.70 1015.14 1015.34 1015.72 1016.07 1016.52 1016.96 1017.39 1017.63 1017.95 1018.15 1018.44 1018.17 1019.27 1019.52 1019.76 1020.01 1020.37 1020.80 1021.16 1021.53 1021.52 1021.72 1021.51 1021.82 1022.02 1022.13 1022.61 1022.51 1022.52 1022.66
1004.03 1005.59 1006.65 1007.43 1008.33 1009.36 1009.90 1010.33 1010.72 1011.65 1012.62 1013.47 1014.20 1014.81 1015.24 1015.60 1015.97 1016.09 1016.40 1016.91 1017.34 1017.63 1017.83 1017.70 1018.12 1018.96 1019.02 1019.13 1019.47 1019.86 1020.13 1020.18 1020.37 1020.81 1020.97 1020.49 1021.00 1021.17 1021.39 1021.60 1022.14 1022.41 1022.14
Thickness
5737 5732 5724 5717 5711 5709 5708 5706 5705 5706 5704 5705 5705 5703 5702 5701 5701 5698 5702 5701 5700 5701 5696 5694 5695 5693 5694 5691 5689 5692 5691 5689 5683 5682 5681 5678 5678 5677 5676 5677 5675 5671 5669
5733 5726 5714 5711 5708 5704 5702 5700 5699 5700 5701 5699 5697 5697 5696 5695 5695 5694 5692 5697 5693 5694 5692 5689 5689 5687 5687 5685 5684 5684 5683 5682 5678 5676 5675 5673 5672 5670 5670 5669 5667 5664 5661
5720 5716 5708 5702 5701 5701 5697 5695 5694 5695 5693 5694 5692 5691 5690 5687 5688 5688 5687 5690 5689 5685 5687 5684 5683 5681 5680 5678 5679 5678 5676 5675 5673 5672 5672 5670 5665 5664 5662 5662 5661 5658 5655
5712 5713 5710 5697 5694 5694 5694 5690 5686 5685 5685 5683 5683 5680 5680 5680 5681 5681 5682 5681 5684 5680 5680 5681 5677 5675 5672 5673 5675 5671 5672 5670 5670 5672 5667 5663 5660 5656 5656 5656 5652 5651 5650
5705 5705 5703 5693 5688 5687 5686 5682 5680 5678 5679 5678 5679 5676 5675 5675 5673 5676 5678 5676 5679 5672 5673 5675 5671 5669 5667 5669 5669 5669 5668 5667 5666 5667 5663 5657 5655 5650 5651 5652 5648 5646 5648
5696 5696 5693 5689 5685 5682 5678 5672 5676 5674 5667 5669 5672 5671 5671 5669 5669 5668 5669 5668 5672 5670 5670 5668 5666 5663 5662 5663 5663 5665 5664 5662 5663 5664 5659 5653 5651 5643 5645 5645 5640 5640 5638
5694 5687 5685 5682 5676 5669 5668 5663 5662 5659 5649 5662 5672 5667 5669 5664 5663 5663 5662 5662 5661 5665 5665 5662 5660 5658 5658 5657 5657 5658 5657 5657 5661 5657 5653 5647 5641 5639 5637 5637 5633 5634 5632
5688 5684 5679 5669 5663 5661 5662 5648 5643 5651 5650 5651 5662 5657 5663 5658 5658 5658 5654 5656 5654 5658 5658 5656 5653 5653 5651 5650 5651 5650 5650 5653 5655 5651 5647 5640 5634 5633 5629 5630 5626 5625 5625
5682 5680 5674 5665 5659 5652 5651 5642 5638 5638 5646 5642 5652 5655 5651 5652 5651 5653 5650 5649 5645 5648 5650 5650 5647 5647 5646 5644 5644 5643 5645 5646 5647 5645 5639 5632 5627 5626 5624 5622 5623 5619 5616
5672 5670 5669 5659 5652 5649 5650 5649 5638 5638 5646 5645 5647 5649 5650 5643 5645 5645 5642 5641 5637 5638 5640 5643 5642 5641 5639 5636 5636 5637 5638 5640 5641 5637 5631 5621 5619 5619 5618 5616 5616 5613 5610
5664 5662 5660 5656 5652 5644 5644 5640 5637 5638 5641 5644 5645 5644 5644 5639 5636 5634 5634 5636 5633 5630 5634 5634 5635 5635 5632 5629 5628 5630 5636 5638 5637 5633 5622 5613 5612 5612 5615 5610 5609 5604 5606
5664 5658 5655 5654 5649 5644 5641 5644 5640 5640 5641 5638 5637 5637 5636 5635 5635 5632 5628 5628 5628 5624 5625 5626 5628 5627 5625 5623 5623 5623 5631 5633 5632 5623 5613 5608 5605 5604 5604 5602 5601 5601 5600
5665 5660 5653 5649 5649 5646 5643 5639 5640 5640 5640 5636 5634 5630 5629 5626 5627 5626 5622 5622 5622 5619 5619 5619 5620 5624 5625 5622 5620 5626 5626 5627 5625 5617 5605 5602 5599 5598 5597 5595 5596 5595 5594
5664 5658 5651 5646 5645 5645 5644 5641 5643 5640 5638 5636 5633 5628 5625 5623 5623 5618 5621 5619 5618 5615 5616 5616 5620 5624 5621 5619 5619 5620 5619 5621 5619 5610 5599 5596 5595 5592 5589 5589 5589 5590 5590
5664 5658 5649 5646 5641 5638 5637 5640 5638 5641 5640 5637 5633 5628 5622 5626 5620 5620 5620 5617 5616 5614 5613 5616 5620 5617 5617 5615 5614 5613 5614 5614 5610 5605 5597 5591 5590 5588 5586 5585 5583 5583 5582
5665 5659 5647 5643 5640 5640 5639 5637 5634 5633 5635 5630 5631 5628 5619 5620 5608 5611 5617 5609 5613 5611 5611 5614 5613 5613 5611 5610 5609 5608 5608 5606 5606 5603 5594 5587 5584 5582 5580 5578 5578 5577 5576
5663 5660 5646 5640 5636 5637 5633 5630 5629 5628 5626 5624 5621 5625 5615 5613 5601 5608 5606 5607 5609 5608 5607 5608 5605 5607 5608 5607 5604 5602 5602 5599 5600 5598 5593 5587 5580 5575 5574 5575 5573 5575 5573
5665 5657 5644 5636 5632 5631 5628 5624 5624 5620 5617 5617 5611 5614 5608 5602 5600 5607 5599 5602 5600 5599 5599 5599 5599 5600 5601 5602 5598 5597 5598 5595 5592 5591 5590 5585 5580 5575 5570 5572 5570 5572 5569
5662 5657 5645 5634 5628 5623 5621 5616 5612 5609 5608 5609 5609 5602 5593 5596 5598 5595 5590 5588 5592 5591 5589 5589 5592 5593 5593 5593 5591 5592 5594 5592 5586 5586 5586 5583 5580 5578 5575 5571 5569 5568 5568
5665 5656 5645 5632 5622 5615 5610 5607 5602 5601 5598 5595 5598 5593 5589 5585 5583 5578 5577 5578 5582 5580 5580 5582 5580 5585 5586 5588 5587 5588 5589 5589 5586 5584 5581 5579 5578 5575 5575 5573 5567 5565 5565
5661 5651 5641 5628 5619 5612 5607 5605 5599 5596 5593 5590 5590 5586 5581 5578 5575 5572 5574 5576 5578 5574 5576 5577 5577 5579 5581 5581 5583 5583 5583 5583 5583 5581 5578 5578 5575 5573 5572 5572 5570 5568 5567
5659 5650 5642 5631 5619 5611 5609 5607 5600 5596 5588 5586 5586 5583 5578 5578 5576 5578 5577 5575 5577 5574 5574 5574 5573 5574 5576 5576 5579 5582 5575 5574 5575 5575 5576 5574 5573 5573 5574 5572 5572 5572 5571
5660 5651 5644 5632 5622 5615 5612 5608 5600 5593 5588 5584 5583 5582 5580 5579 5579 5579 5577 5577 5579 5577 5574 5574 5576 5576 5574 5574 5577 5579 5572 5572 5574 5572 5571 5573 5573 5573 5573 5572 5570 5570 5567
5666 5656 5645 5636 5626 5620 5615 5610 5604 5598 5592 5587 5585 5582 5582 5579 5577 5577 5579 5578 5576 5576 5574 5573 5576 5575 5575 5572 5569 5572 5573 5573 5565 5562 5568 5571 5570 5568 5568 5565 5567 5567 5569
5671 5660 5649 5641 5630 5624 5619 5613 5606 5600 5592 5586 5582 5580 5581 5579 5579 5578 5577 5576 5575 5575 5575 5575 5581 5574 5574 5574 5573 5571 5568 5567 5566 5567 5565 5570 5572 5571 5569 5566 5566 5567 5566
5674 5661 5653 5646 5638 5628 5622 5618 5613 5604 5595 5588 5581 5577 5577 5578 5578 5578 5576 5574 5573 5573 5573 5576 5575 5570 5573 5574 5573 5572 5571 5571 5570 5568 5567 5574 5571 5570 5568 5566 5563 5560 5560